Skip Page Navigation
NASA JPL Caltech
NASA Logo - Jet Propulsion Laboratory + View the NASA Portal
+ Near-Earth Object (NEO) Program
Search JPL
JPL Home Earth Solar System Stars & Galaxies Technology
JPL Solar System Dynamics
BODIES ORBITS EPHEMERIDES TOOLS PHYSICAL DATA DISCOVERY FAQ SITE MAP
JPL Small-Body Database Browser
Search: [ help ]  
174801 Etscorn (2003 WZ165)
Classification: Main-belt Asteroid          SPK-ID: 2174801
Ephemeris | Orbit Diagram | Orbital Elements | Physical Parameters | Discovery Circumstances ]

[ show orbit diagram ]
Orbital Elements at Epoch 2456400.5 (2013-Apr-18.0) TDB
Reference: MPO232169 (heliocentric ecliptic J2000)
 Element Value Uncertainty (1-sigma)   Units 
e 0.1908965 n/a  
a 2.3497332 n/a AU
q 1.9011774 n/a AU
i 4.19605 n/a deg
node 253.83911 n/a deg
peri 167.58245 n/a deg
M 224.42740 n/a deg
tp 2456895.9452581
(2014-Aug-26.44525810)
n/a JED
period 1315.6072313
3.60
n/a
n/a
d
yr
n 0.27363790 n/a deg/d
Q 2.7982890 n/a AU
  Orbit Determination Parameters
   # obs. used (total)      227  
   first obs. used      2003-??-??  
   last obs. used      2012-05-25  
   # oppositions      6  
   planetary ephem.      DE403  
   condition code      1  
   fit RMS      0.50  
   data source      MPC:mpu  
   producer      MPCLINUX  

Additional Information
 T_jup = 3.530 

Ephemeris | Orbit Diagram | Orbital Elements | Physical Parameters | Discovery Circumstances ]

Physical Parameter Table
Parameter Symbol Value Units Sigma Reference Notes
absolute magnitude H 16.8 mag n/a MPO232169  

174801 Etscorn           Discovered 2003 Nov. 23 by W. H. Ryan at the Etscorn Campus Observatory of New Mexico Institute of Mining and Technology.
Frank Etscorn (b. 1945), a professor of psychology at New Mexico Institute of Mining and Technology, is the inventor of the nicotine patch. As an avid amateur astronomer, he leveraged the success of this effort into the creation of the university's Etscorn Campus Observatory.
NOTE: some special characters may not display properly (any characters within {} are an attempt to place the proper accent above a character)
Reference: 20081113/MPCPages.arcLast Updated: 2008-11-17
Ephemeris | Orbit Diagram | Orbital Elements | Physical Parameters | Discovery Circumstances ]
ABOUT SSD CREDITS/AWARDS PRIVACY/COPYRIGHT GLOSSARY LINKS
FirstGov 2013-May-24 21:12 UT
(server date/time)  
NASA Home Page
Site Manager:   Donald K. Yeomans
Webmaster  Alan B. Chamberlin